Regional Weather Roundup
Issued by NWS Grand Forks, ND

Home | Current Version | Previous Version | Graphics & Text | Print | Product List | Glossary On
Versions: 1 2 3 4 5 6 7 8 9 10 11 12 13 14 15 16 17 18 19 20 21 22 23 24 25 26 27 28 29 30 31 32 33 34 35 36 37 38 39 40 41 42 43 44 45 46 47 48 49 50
000
ASUS43 KFGF 240031
RWRFGF
PRAIRIE TO PINES  WEATHER ROUNDUP
NATIONAL WEATHER SERVICE EASTERN NORTH DAKOTA/GRAND FORKS ND
600 PM CST MON JAN 23 2017

 **SATELLITE DATA USED TO AUGMENT SKY COVER AT AUTOMATED STATIONS**
 *****  WEATHER ACROSS EASTERN NORTH DAKOTA  *****

CITY           SKY/WX    TMP DP  RH WIND       PRES   REMARKS
GRAND FORKS    CLOUDY    31  24  75 W6        29.81S
6HR MIN TEMP:  30; 6HR MAX TEMP:  32;

GRAND FRKS AFB CLOUDY    30  22  74 W14       29.81S WCI  19
DEVILS LAKE    CLOUDY    23  19  85 W14       29.79R WCI  11
6HR MIN TEMP:  23; 6HR MAX TEMP:  27;

FARGO          CLOUDY    33  28  81 NW3       29.83S
WAHPETON ARPT  CLOUDY    32  28  86 CALM      29.84S
$$

 ***** WEATHER ACROSS CENTRAL AND WESTERN NORTH DAKOTA  *****

CITY           SKY/WX    TMP DP  RH WIND       PRES   REMARKS
BISMARCK       CLOUDY    31  23  72 CALM      29.80R
6HR MIN TEMP:  30; 6HR MAX TEMP:  33;

MINOT          CLOUDY    24  18  77 W10       29.78R WCI  14
6HR MIN TEMP:  24; 6HR MAX TEMP:  27;

JAMESTOWN      CLOUDY    28  23  81 SW3       29.79S
6HR MIN TEMP:  28; 6HR MAX TEMP:  29;

MINOT AFB      CLOUDY    22  18  85 W15       29.77R WCI   8
GARRISON         N/A     24  20  84 N10       29.78R WCI  14
WILLISTON      LGT SNOW  21  18  88 NW6       29.81R FOG     WCI  13
6HR MIN TEMP:  21; 6HR MAX TEMP:  25; 6HR PCP: TRACE;

DICKINSON      CLOUDY    23  20  88 N3        29.74R
6HR MIN TEMP:  23; 6HR MAX TEMP:  24;

HETTINGER      CLOUDY    21  19  92 NE6       29.75R FOG     WCI  13
6HR MIN TEMP:  21; 6HR MAX TEMP:  24; 6HR PCP: TRACE;

$$

 *****  OTHER AIRPORT OBSERVATIONS IN OUR AREA  *****

CITY           SKY/WX    TMP DP  RH WIND       PRES   REMARKS
WALHALLA       NOT AVBL
GRAFTON AIRPOR CLOUDY    28  23  80 W12       29.82R WCI  18
VALLEY CITY AR CLOUDY    28  28 100 W7        29.83F WCI  21
CANDO          NOT AVBL
CAVALIER APRT  CLOUDY    28  23  80 W10       29.78S WCI  19
GWINNER        CLOUDY    32  28  86 CALM      29.83S
SHEYENNE NWR     N/A     31  25  78 NW2       29.95
ROLLA            N/A    N/A N/A N/A MISG        N/A
 ***** THE ABOVE OBSERVATIONS ARE NON NWS ARE NOT QUALITY
       CONTROLLED AND MAY MIS-REPORT RAIN FOR SNOW...
$$

  *****  WEATHER ACROSS NORTHERN MINNESOTA  *****

CITY           SKY/WX    TMP DP  RH WIND       PRES   REMARKS
FLAG ISLAND    CLOUDY    30  27  86 SW12      29.76S WCI  21
WARROAD        CLOUDY    28  25  86 SW7       29.79S WCI  21
ROSEAU         CLOUDY    28  25  86 SW8       29.79S WCI  20
HALLOCK        CLOUDY    28  25  86 SW9       29.79R WCI  20
THF RVR FALLS  CLOUDY    29  23  78 SW10      29.81S WCI  20
6HR MIN TEMP:  29; 6HR MAX TEMP:  30;

BAUDETTE       CLOUDY    31  25  78 SW10      29.78R WCI  22
6HR MIN TEMP:  31; 6HR MAX TEMP:  33;

WASKISH        CLOUDY    30  27  86 W8        29.80S WCI  23
CROOKSTON      CLOUDY    28  25  86 W6        29.83S WCI  22
STEPHEN NDAWN    N/A     28  23  80 W12         N/A  WCI  18
GREENBUSH NDAW   N/A     28  25  86 SW14        N/A  WCI  17
$$
  *****  WEATHER ACROSS CENTRAL AND WEST MINNESOTA  *****

CITY           SKY/WX    TMP DP  RH WIND       PRES   REMARKS
FOSSTON        CLOUDY    28  23  80 SW9       29.81S WCI  20
BEMIDJI        CLOUDY    30  25  80 W8        29.79S WCI  23
PARK RAPIDS    CLOUDY    31  24  75 W9        29.80R WCI  23
6HR MIN TEMP:  31; 6HR MAX TEMP:  32;

ELBOW LAKE     CLOUDY    31  26  83 CALM      29.84R
6HR MIN TEMP:  31; 6HR MAX TEMP:  31;

WADENA         CLOUDY    30  25  80 W5        29.81S
DETROIT LAKES  CLOUDY    32  28  86 NW3       29.82S
MOORHEAD       CLOUDY    30  27  86 N5        29.84S
FERGUS FALLS   CLOUDY    30  27  86 CALM      29.87S
MORRIS MN      CLOUDY    30  27  86 CALM      29.82F
STAPLES        CLOUDY    30  25  80 CALM      29.82S
$$
  *****  WEATHER ELSEWHERE ACROSS MINNESOTA  *****

CITY           SKY/WX    TMP DP  RH WIND       PRES   REMARKS
DULUTH         CLOUDY    34  32  92 NW5       29.78S
6HR MIN TEMP:  34; 6HR MAX TEMP:  38; 6HR PCP:  0.02;

INTRNTL FALLS  CLOUDY    32  27  81 CALM      29.78R
6HR MIN TEMP:  32; 6HR MAX TEMP:  34;

ELY            CLOUDY    34  34 100 CALM      29.77S
CLOQUET        CLOUDY    34  32  93 W5        29.79S
WHEATON        CLOUDY    32  27  80 CALM      29.86S
BRAINERD       CLOUDY    31  25  78 CALM      29.82R
6HR MIN TEMP:  31; 6HR MAX TEMP:  32;

HIBBING        CLOUDY    31  30  96 W5        29.79R
6HR MIN TEMP:  31; 6HR MAX TEMP:  34;

ALEXANDRIA     CLOUDY    30  25  81 W3        29.83R
6HR MIN TEMP:  30; 6HR MAX TEMP:  31;

SAINT CLOUD    CLOUDY    32  27  81 NW5       29.83S
6HR MIN TEMP:  32; 6HR MAX TEMP:  33;

MINNEAPOLIS    CLOUDY    34  29  82 NW5       29.84R
6HR MIN TEMP:  34; 6HR MAX TEMP:  35;

$$

  *****  WEATHER ACROSS SOUTH DAKOTA  *****

CITY           SKY/WX    TMP DP  RH WIND       PRES   REMARKS
SIOUX FALLS    CLOUDY    31  29  92 SE7       29.81S WCI  24
6HR MIN TEMP:  30; 6HR MAX TEMP:  32;

BROOKINGS      CLOUDY    30  26  85 SE5       29.80S
WATERTOWN      CLOUDY    29  26  89 SE3       29.80R
6HR MIN TEMP:  28; 6HR MAX TEMP:  29;

HURON          MOCLDY    31  28  89 E8        29.78S WCI  23
6HR MIN TEMP:  30; 6HR MAX TEMP:  31;

SISSETON         N/A     32  28  85 CALM      29.83R
ABERDEEN       LGT SNOW  29  25  85 E5        29.82S FOG     WCI  24
6HR MIN TEMP:  30; 6HR MAX TEMP:  31; 6HR PCP:  0.01;

MITCHELL       CLOUDY    32  29  88 SE13      29.78S WCI  22
PIERRE         CLOUDY    30  26  85 E15       29.72R WCI  19
6HR MIN TEMP:  29; 6HR MAX TEMP:  30;

MOBRIDGE       LGT SNOW  29  24  82 NE9       29.74S WCI  20
RAPID CITY     CLOUDY    22  20  92 N15       29.68R WCI   9
6HR MIN TEMP:  22; 6HR MAX TEMP:  27;

$$

  *****  SOME WEATHER IN NEARBY STATES *****

CITY           SKY/WX    TMP DP  RH WIND       PRES   REMARKS
GLASGOW MT     CLOUDY    23  18  81 NW8       29.80S WCI  14
6HR MIN TEMP:  23; 6HR MAX TEMP:  28; 6HR PCP:  0.03;

GREAT FALLS MT CLOUDY    20  16  84 CALM      29.78R
6HR MIN TEMP:  20; 6HR MAX TEMP:  22; 6HR PCP:  0.01;

CHEYENNE WY    CLOUDY    37  26  64 E12       29.53R
6HR MIN TEMP:  37; 6HR MAX TEMP:  50;

SCOTTSBLUFF NE FAIR      37  27  67 CALM      29.56R
6HR MIN TEMP:  37; 6HR MAX TEMP:  50;

OMAHA NE       CLOUDY    34  27  75 SE10      29.82R
6HR MIN TEMP:  34; 6HR MAX TEMP:  36;

DES MOINES IA  CLOUDY    34  28  79 CALM      29.85F
6HR MIN TEMP:  33; 6HR MAX TEMP:  35;

DAVENPORT IA   CLOUDY    37  34  89 NW5       29.83S
6HR MIN TEMP:  37; 6HR MAX TEMP:  39;

CHICAGO IL     CLOUDY    41  35  79 NW9       29.77R
6HR MIN TEMP:  40; 6HR MAX TEMP:  42;

EAU CLAIRE WI  CLOUDY    34  34 100 CALM      29.81S
6HR MIN TEMP:  34; 6HR MAX TEMP:  35; 6HR PCP: TRACE;

LA CROSSE WI   CLOUDY    37  33  85 N3        29.83S
6HR MIN TEMP:  37; 6HR MAX TEMP:  39;

$$

  *****  SOME NATIONAL WEATHER *****

CITY           SKY/WX    TMP DP  RH WIND       PRES   REMARKS
LA GUARDIA NY  RAIN      39  35  86 NE23G31   29.65F FOG
6HR MIN TEMP:  39; 6HR MAX TEMP:  43; 6HR PCP:  0.21;

RALEIGH NC     CLOUDY    50  45  83 N12G20    29.35R
6HR MIN TEMP:  50; 6HR MAX TEMP:  60; 6HR PCP: TRACE;

ATLANTA GA     MOCLDY    53  44  71 NW29G35   29.60R
6HR MIN TEMP:  53; 6HR MAX TEMP:  56;

NEW ORLEANS LA FAIR      62  46  55 W8        29.86R
6HR MIN TEMP:  61; 6HR MAX TEMP:  68;

OKLAHOMA CITY  FAIR      54  32  43 S9        29.73F
6HR MIN TEMP:  53; 6HR MAX TEMP:  62;

ALBUQUERQUE NM FAIR      57  20  23 W29G45    29.71R
6HR MIN TEMP:  47; 6HR MAX TEMP:  60;

SALT LAKE CITY LGT SNOW  33  32  96 W6        29.57R FOG
6HR MIN TEMP:  33; 6HR MAX TEMP:  40; 6HR PCP:  0.11;

LOS ANGELES CA FAIR      53  43  68 W24       29.83S
6HR MIN TEMP:  50; 6HR MC1F1C2F2C3F3C4F4C5F5C6F6C7F7C8F8C9F9CaFaCbFbCcFcCd!



USA.gov is the U.S. government's official web portal to all federal, state and local government web resources and services.